Flag for South Korea Weather past 2 weeks in Daegu, South Korea

Now
72 °F

Passing clouds.


Feels Like: 74 °F
Forecast: 63 / 76 °F
Wind: 12 mph from Southeast

Location: Taegu Ab

Current Time: Aug 29, 2014 at 9:16:17 PM

Latest Report: Aug 29, 2014 at 8:00 PM


Visibility: N/A

Pressure: 29.98 "Hg

Humidity: 73%

Dew point: 63 °F

Location of DaeguLocation

Historic Weather in Daegu — Graph

°F

Daegu temperature yesterday

Maximum temperature yesterday: 82 °F (at 3:00 PM)
Minimum temperature yesterday: 66 °F (at 1:00 AM)
Average temperature yesterday: 72 °F

Past Weeks' High & Low Weather Summary

 TemperatureHumidityPressure
High90 °F (Aug 26, 4:00 PM)100% (Aug 15, 8:00 AM)30.07 "Hg (Aug 15, 8:00 AM)
Low64 °F (Aug 29, 6:00 AM)46% (Aug 23, 1:00 PM)29.65 "Hg (Aug 21, 3:00 PM)
Average75 °F81%29.84 "Hg
* Reported Aug 14 8:00 PM — Aug 29 8:00 PM, Daegu, Weather by CustomWeather, © 2014

Note: Actual official high and low records may vary slightly from our data, if they occured in-between our weather recording intervals... More about our weather records

Advertising

Daegu weather history for previous 24 hours

 ConditionsComfort  
Time TempWeatherWind HumidityBarometerVisibility
8:00 PM
Aug 29
72 °FPassing clouds.12 mph73%29.98 "HgN/A
7:00 PM73 °FPassing clouds.7 mph69%29.98 "HgN/A
6:00 PM79 °FPartly sunny.12 mph58%29.95 "HgN/A
5:00 PM79 °FBroken clouds.9 mph58%29.95 "HgN/A
4:00 PM79 °FBroken clouds.10 mph54%29.95 "HgN/A
3:00 PM82 °FBroken clouds.10 mph51%29.95 "HgN/A
2:00 PM79 °FBroken clouds.10 mph61%29.98 "HgN/A
1:00 PM79 °FPartly sunny.8 mph61%29.98 "HgN/A
12:00 PM77 °FBroken clouds.8 mph65%29.98 "HgN/A
11:00 AM75 °FBroken clouds.9 mph69%30.01 "HgN/A
10:00 AM72 °FBroken clouds.1 mph78%30.01 "HgN/A
9:00 AM68 °FPartly sunny.1 mph88%30.01 "HgN/A
8:00 AM66 °FPartly sunny.3 mph88%30.01 "HgN/A
7:00 AM64 °FPartly sunny.2 mph94%30.01 "HgN/A
6:00 AM64 °FPartly sunny.2 mph94%30.01 "HgN/A
5:00 AM66 °FClear.1 mph88%30.01 "Hg10 mi
3:00 AM66 °FPassing clouds.1 mph88%30.01 "HgN/A
2:00 AM66 °FPassing clouds.1 mph88%30.02 "HgN/A
1:00 AM68 °FPassing clouds.5 mph83%30.02 "HgN/A
12:00 AM68 °FPassing clouds.3 mph83%30.03 "HgN/A
11:00 PM
Aug 28
70 °FPassing clouds.8 mph78%30.03 "HgN/A
10:00 PM70 °FPassing clouds.6 mph78%30.01 "HgN/A
9:00 PM70 °FPassing clouds.9 mph78%30.01 "HgN/A
Weather by CustomWeather, © 2014

See weather overviewHow to use our weather pages